Time,TemperatureF,DewpointF,PressureIn,WindDirection,WindDirectionDegrees,WindSpeedMPH,WindSpeedGustMPH,Humidity,HourlyPrecipIn,Conditions,Clouds,dailyrainin,SoftwareType,DateUTC
2013-03-17 00:00:00,32.9,24.5,29.87,SSE,152,4.0,14.0,71,0.00,,,0.00,Wunderground v.1.13,2013-03-17 06:00:00,
2013-03-17 00:05:00,32.8,25.1,29.87,SSE,153,5.0,14.0,73,0.00,,,0.00,Wunderground v.1.13,2013-03-17 06:05:00,
2013-03-17 00:15:00,32.8,25.1,29.87,SSE,155,2.0,2.0,73,0.00,,,0.00,Wunderground v.1.13,2013-03-17 06:15:00,
2013-03-17 00:25:00,32.7,25.6,29.87,SSE,148,0.0,14.0,75,0.00,,,0.00,Wunderground v.1.13,2013-03-17 06:25:00,
2013-03-17 00:30:00,32.5,25.8,29.87,SSE,148,2.0,14.0,76,0.00,,,0.00,Wunderground v.1.13,2013-03-17 06:30:00,
2013-03-17 00:35:00,32.4,25.7,29.87,SSE,162,2.0,2.0,76,0.00,,,0.00,Wunderground v.1.13,2013-03-17 06:35:00,
2013-03-17 00:45:00,32.1,25.4,29.87,SSE,152,3.0,14.0,76,0.00,,,0.00,Wunderground v.1.13,2013-03-17 06:45:00,
2013-03-17 00:50:00,31.9,25.2,29.86,East,83,4.0,4.0,76,0.00,,,0.00,Wunderground v.1.13,2013-03-17 06:50:00,
2013-03-17 00:55:00,31.8,25.4,29.86,SSE,148,3.0,3.0,77,0.00,,,0.00,Wunderground v.1.13,2013-03-17 06:55:00,
2013-03-17 01:05:00,31.5,25.4,29.86,SSE,148,4.0,4.0,78,0.00,,,0.00,Wunderground v.1.13,2013-03-17 07:05:00,
2013-03-17 01:10:00,31.3,25.5,29.86,SSE,156,4.0,14.0,79,0.00,,,0.00,Wunderground v.1.13,2013-03-17 07:10:00,
2013-03-17 01:15:00,31.0,25.6,29.86,SSE,159,3.0,3.0,80,0.00,,,0.00,Wunderground v.1.13,2013-03-17 07:15:00,
2013-03-17 01:20:00,31.0,25.6,29.85,SSE,157,2.0,2.0,80,0.00,,,0.00,Wunderground v.1.13,2013-03-17 07:20:00,
2013-03-17 01:25:00,30.9,25.8,29.85,SE,136,1.0,14.0,81,0.00,,,0.00,Wunderground v.1.13,2013-03-17 07:25:00,
2013-03-17 01:30:00,30.7,25.6,29.85,SE,144,2.0,2.0,81,0.00,,,0.00,Wunderground v.1.13,2013-03-17 07:30:00,
2013-03-17 01:35:00,30.4,25.3,29.86,SE,127,3.0,3.0,81,0.00,,,0.00,Wunderground v.1.13,2013-03-17 07:35:00,
2013-03-17 01:40:00,30.3,25.5,29.86,SE,144,4.0,14.0,82,0.00,,,0.00,Wunderground v.1.13,2013-03-17 07:40:00,
2013-03-17 01:45:00,30.3,25.5,29.86,SSE,150,3.0,3.0,82,0.00,,,0.00,Wunderground v.1.13,2013-03-17 07:45:00,
2013-03-17 01:50:00,30.1,26.4,29.85,SSE,152,2.0,14.0,86,0.00,,,0.00,Wunderground v.1.13,2013-03-17 07:50:00,
2013-03-17 01:55:00,30.0,25.5,29.85,SSE,150,2.0,2.0,83,0.00,,,0.00,Wunderground v.1.13,2013-03-17 07:55:00,
2013-03-17 02:00:00,30.0,25.8,29.85,SE,140,2.0,2.0,84,0.00,,,0.00,Wunderground v.1.13,2013-03-17 08:00:00,
2013-03-17 02:05:00,29.7,26.0,29.85,SSE,155,2.0,2.0,86,0.00,,,0.00,Wunderground v.1.13,2013-03-17 08:05:00,
2013-03-17 02:10:00,29.5,25.8,29.85,SSE,162,2.0,2.0,86,0.00,,,0.00,Wunderground v.1.13,2013-03-17 08:10:00,
2013-03-17 02:15:00,29.5,26.1,29.85,SE,145,3.0,14.0,87,0.00,,,0.00,Wunderground v.1.13,2013-03-17 08:15:00,
2013-03-17 02:25:00,29.4,26.6,29.85,SSE,150,2.0,14.0,89,0.00,,,0.00,Wunderground v.1.13,2013-03-17 08:25:00,
2013-03-17 02:30:00,29.3,26.5,29.85,SSE,162,4.0,4.0,89,0.00,,,0.00,Wunderground v.1.13,2013-03-17 08:30:00,
2013-03-17 02:40:00,29.3,26.7,29.84,SSE,159,2.0,2.0,90,0.00,,,0.00,Wunderground v.1.13,2013-03-17 08:40:00,
2013-03-17 02:45:00,29.3,26.7,29.84,SE,146,2.0,14.0,90,0.00,,,0.00,Wunderground v.1.13,2013-03-17 08:45:00,
2013-03-17 02:55:00,29.3,27.0,29.84,SSE,153,2.0,2.0,91,0.00,,,0.00,Wunderground v.1.13,2013-03-17 08:55:00,
2013-03-17 03:00:00,29.3,27.0,29.84,SSE,153,2.0,2.0,91,0.00,,,0.00,Wunderground v.1.13,2013-03-17 09:00:00,
2013-03-17 03:05:00,29.3,27.3,29.84,SSE,163,3.0,14.0,92,0.00,,,0.00,Wunderground v.1.13,2013-03-17 09:05:00,
2013-03-17 03:10:00,29.3,27.3,29.84,SSE,164,2.0,2.0,92,0.00,,,0.00,Wunderground v.1.13,2013-03-17 09:10:00,
2013-03-17 03:15:00,29.1,27.1,29.84,SSE,154,2.0,14.0,92,0.00,,,0.00,Wunderground v.1.13,2013-03-17 09:15:00,
2013-03-17 03:25:00,29.0,27.0,29.84,SSE,163,4.0,14.0,92,0.00,,,0.00,Wunderground v.1.13,2013-03-17 09:25:00,
2013-03-17 03:30:00,29.0,27.0,29.84,SE,142,5.0,14.0,92,0.00,,,0.00,Wunderground v.1.13,2013-03-17 09:30:00,
2013-03-17 03:35:00,29.0,27.0,29.84,South,173,4.0,4.0,92,0.00,,,0.00,Wunderground v.1.13,2013-03-17 09:35:00,
2013-03-17 03:40:00,29.0,27.0,29.84,SE,142,3.0,3.0,92,0.00,,,0.00,Wunderground v.1.13,2013-03-17 09:40:00,
2013-03-17 03:45:00,29.1,27.1,29.84,SSW,192,2.0,2.0,92,0.00,,,0.00,Wunderground v.1.13,2013-03-17 09:45:00,
2013-03-17 03:50:00,28.8,26.8,29.82,SSE,148,4.0,4.0,92,0.00,,,0.00,Wunderground v.1.13,2013-03-17 09:50:00,
2013-03-17 04:00:00,29.0,27.2,29.82,SSE,161,3.0,14.0,93,0.00,,,0.00,Wunderground v.1.13,2013-03-17 10:00:00,
2013-03-17 04:05:00,28.8,27.0,29.82,South,171,3.0,3.0,93,0.00,,,0.00,Wunderground v.1.13,2013-03-17 10:05:00,
2013-03-17 04:10:00,28.8,27.0,29.82,SSE,150,2.0,14.0,93,0.00,,,0.00,Wunderground v.1.13,2013-03-17 10:10:00,
2013-03-17 04:15:00,28.8,27.0,29.82,SE,145,2.0,2.0,93,0.00,,,0.00,Wunderground v.1.13,2013-03-17 10:15:00,
2013-03-17 04:20:00,28.8,27.0,29.82,SE,142,1.0,14.0,93,0.00,,,0.00,Wunderground v.1.13,2013-03-17 10:20:00,
2013-03-17 04:25:00,28.7,26.9,29.82,SSE,155,2.0,14.0,93,0.00,,,0.00,Wunderground v.1.13,2013-03-17 10:25:00,
2013-03-17 04:30:00,28.8,27.3,29.82,SSE,153,3.0,3.0,94,0.00,,,0.00,Wunderground v.1.13,2013-03-17 10:30:00,
2013-03-17 04:40:00,28.8,27.3,29.81,SSE,148,1.0,14.0,94,0.00,,,0.00,Wunderground v.1.13,2013-03-17 10:40:00,
2013-03-17 04:45:00,28.8,27.3,29.81,SSE,154,2.0,2.0,94,0.00,,,0.00,Wunderground v.1.13,2013-03-17 10:45:00,
2013-03-17 04:50:00,28.8,27.3,29.80,SSE,151,2.0,2.0,94,0.00,,,0.00,Wunderground v.1.13,2013-03-17 10:50:00,
2013-03-17 04:55:00,29.0,27.5,29.80,SE,134,3.0,3.0,94,0.00,,,0.00,Wunderground v.1.13,2013-03-17 10:55:00,
2013-03-17 05:00:00,29.1,27.6,29.80,SSE,151,1.0,1.0,94,0.00,,,0.00,Wunderground v.1.13,2013-03-17 11:00:00,
2013-03-17 05:05:00,29.3,27.8,29.80,SSE,161,1.0,1.0,94,0.00,,,0.00,Wunderground v.1.13,2013-03-17 11:05:00,
2013-03-17 05:15:00,29.3,27.8,29.80,SSE,155,2.0,2.0,94,0.00,,,0.00,Wunderground v.1.13,2013-03-17 11:15:00,
2013-03-17 05:20:00,29.4,27.9,29.79,South,181,0.0,14.0,94,0.00,,,0.00,Wunderground v.1.13,2013-03-17 11:20:00,
2013-03-17 05:25:00,29.4,27.9,29.79,SE,142,1.0,1.0,94,0.00,,,0.00,Wunderground v.1.13,2013-03-17 11:25:00,
2013-03-17 05:30:00,29.3,27.8,29.79,SSE,156,2.0,14.0,94,0.00,,,0.00,Wunderground v.1.13,2013-03-17 11:30:00,
2013-03-17 05:35:00,29.3,27.8,29.79,SE,142,4.0,4.0,94,0.00,,,0.00,Wunderground v.1.13,2013-03-17 11:35:00,
2013-03-17 05:40:00,29.3,27.8,29.79,SSE,158,3.0,14.0,94,0.00,,,0.00,Wunderground v.1.13,2013-03-17 11:40:00,
2013-03-17 05:50:00,29.3,27.8,29.79,SSE,154,4.0,14.0,94,0.00,,,0.00,Wunderground v.1.13,2013-03-17 11:50:00,
2013-03-17 05:55:00,29.4,27.9,29.79,South,184,4.0,14.0,94,0.00,,,0.00,Wunderground v.1.13,2013-03-17 11:55:00,
2013-03-17 06:00:00,29.5,28.0,29.79,South,169,5.0,5.0,94,0.00,,,0.00,Wunderground v.1.13,2013-03-17 12:00:00,
2013-03-17 06:05:00,29.5,28.0,29.79,SSE,157,3.0,3.0,94,0.00,,,0.00,Wunderground v.1.13,2013-03-17 12:05:00,
2013-03-17 06:10:00,29.7,28.4,29.79,SSE,157,3.0,3.0,95,0.00,,,0.00,Wunderground v.1.13,2013-03-17 12:10:00,
2013-03-17 06:15:00,29.7,28.2,29.79,South,170,3.0,14.0,94,0.00,,,0.00,Wunderground v.1.13,2013-03-17 12:15:00,
2013-03-17 06:20:00,29.7,28.2,29.78,SSE,148,3.0,3.0,94,0.00,,,0.00,Wunderground v.1.13,2013-03-17 12:20:00,
2013-03-17 06:25:00,29.7,28.2,29.78,SSE,151,4.0,4.0,94,0.00,,,0.00,Wunderground v.1.13,2013-03-17 12:25:00,
2013-03-17 06:30:00,29.7,28.2,29.78,SSE,151,4.0,4.0,94,0.00,,,0.00,Wunderground v.1.13,2013-03-17 12:30:00,
2013-03-17 06:35:00,29.7,28.2,29.77,SE,146,3.0,14.0,94,0.00,,,0.00,Wunderground v.1.13,2013-03-17 12:35:00,
2013-03-17 06:39:00,29.7,28.2,29.77,SSE,163,3.0,14.0,94,0.00,,,0.00,Wunderground v.1.13,2013-03-17 12:39:00,
2013-03-17 06:45:00,29.5,28.0,29.77,SE,146,4.0,14.0,94,0.00,,,0.00,Wunderground v.1.13,2013-03-17 12:45:00,
2013-03-17 06:50:00,29.5,28.0,29.77,SSE,149,5.0,5.0,94,0.00,,,0.00,Wunderground v.1.13,2013-03-17 12:50:00,
2013-03-17 06:55:00,29.5,28.0,29.77,SE,137,5.0,5.0,94,0.00,,,0.00,Wunderground v.1.13,2013-03-17 12:55:00,
2013-03-17 07:00:00,29.7,28.2,29.77,SSE,156,6.0,14.0,94,0.00,,,0.00,Wunderground v.1.13,2013-03-17 13:00:00,
2013-03-17 07:05:00,29.7,28.2,29.76,SSE,153,6.0,14.0,94,0.00,,,0.00,Wunderground v.1.13,2013-03-17 13:05:00,
2013-03-17 07:10:00,29.8,28.3,29.76,SSE,147,5.0,5.0,94,0.00,,,0.00,Wunderground v.1.13,2013-03-17 13:10:00,
2013-03-17 07:15:00,29.8,28.3,29.76,SSE,159,6.0,6.0,94,0.00,,,0.00,Wunderground v.1.13,2013-03-17 13:15:00,
2013-03-17 07:20:00,30.0,28.5,29.75,SSE,152,6.0,6.0,94,0.00,,,0.00,Wunderground v.1.13,2013-03-17 13:20:00,
2013-03-17 07:25:00,30.1,28.6,29.75,South,171,5.0,14.0,94,0.00,,,0.00,Wunderground v.1.13,2013-03-17 13:25:00,
2013-03-17 07:35:00,30.6,29.1,29.75,SSE,161,4.0,14.0,94,0.00,,,0.00,Wunderground v.1.13,2013-03-17 13:35:00,
2013-03-17 07:39:00,30.7,29.2,29.75,SSE,155,6.0,6.0,94,0.00,,,0.00,Wunderground v.1.13,2013-03-17 13:39:00,
2013-03-17 07:45:00,30.7,29.2,29.75,SE,137,7.0,14.0,94,0.00,,,0.00,Wunderground v.1.13,2013-03-17 13:45:00,
2013-03-17 07:55:00,30.9,29.1,29.74,SSE,153,8.0,8.0,93,0.00,,,0.00,Wunderground v.1.13,2013-03-17 13:55:00,
2013-03-17 08:00:00,31.0,29.2,29.74,SSE,154,7.0,14.0,93,0.00,,,0.00,Wunderground v.1.13,2013-03-17 14:00:00,
2013-03-17 08:05:00,31.0,29.2,29.74,SSW,202,7.0,17.0,93,0.00,,,0.00,Wunderground v.1.13,2013-03-17 14:05:00,
2013-03-17 08:10:00,31.2,29.4,29.74,SSE,150,5.0,14.0,93,0.00,,,0.00,Wunderground v.1.13,2013-03-17 14:10:00,
2013-03-17 08:15:00,31.3,29.2,29.74,SSE,151,5.0,14.0,92,0.00,,,0.00,Wunderground v.1.13,2013-03-17 14:15:00,
2013-03-17 08:19:00,31.3,29.2,29.73,SSE,152,8.0,17.0,92,0.00,,,0.00,Wunderground v.1.13,2013-03-17 14:19:00,
2013-03-17 08:25:00,31.3,29.2,29.73,SSE,163,8.0,8.0,92,0.00,,,0.00,Wunderground v.1.13,2013-03-17 14:25:00,
2013-03-17 08:35:00,31.5,29.4,29.73,SSW,196,5.0,5.0,92,0.00,,,0.00,Wunderground v.1.13,2013-03-17 14:35:00,
2013-03-17 08:40:00,31.8,29.5,29.73,South,172,4.0,4.0,91,0.00,,,0.00,Wunderground v.1.13,2013-03-17 14:40:00,
2013-03-17 08:44:00,31.6,29.3,29.73,SE,145,5.0,14.0,91,0.00,,,0.00,Wunderground v.1.13,2013-03-17 14:44:00,
2013-03-17 08:49:00,31.8,29.5,29.73,South,177,7.0,7.0,91,0.00,,,0.00,Wunderground v.1.13,2013-03-17 14:49:00,
2013-03-17 08:55:00,32.1,29.5,29.73,SSE,168,7.0,14.0,90,0.00,,,0.00,Wunderground v.1.13,2013-03-17 14:55:00,
2013-03-17 09:00:00,32.1,29.5,29.73,South,188,6.0,6.0,90,0.00,,,0.00,Wunderground v.1.13,2013-03-17 15:00:00,
2013-03-17 09:05:00,32.1,29.5,29.73,SSE,162,7.0,7.0,90,0.00,,,0.00,Wunderground v.1.13,2013-03-17 15:05:00,
2013-03-17 09:10:00,32.1,29.2,29.73,South,174,7.0,7.0,89,0.00,,,0.00,Wunderground v.1.13,2013-03-17 15:10:00,
2013-03-17 09:15:00,32.2,29.3,29.73,SSW,206,6.0,18.0,89,0.00,,,0.00,Wunderground v.1.13,2013-03-17 15:15:00,
2013-03-17 09:20:00,32.4,29.5,29.73,SSE,155,5.0,14.0,89,0.00,,,0.00,Wunderground v.1.13,2013-03-17 15:20:00,
2013-03-17 09:25:00,32.4,29.8,29.73,SSE,156,5.0,5.0,90,0.00,,,0.00,Wunderground v.1.13,2013-03-17 15:25:00,
2013-03-17 09:30:00,32.4,29.8,29.73,South,181,6.0,6.0,90,0.00,,,0.00,Wunderground v.1.13,2013-03-17 15:30:00,
2013-03-17 09:35:00,32.5,29.9,29.72,South,190,6.0,6.0,90,0.00,,,0.00,Wunderground v.1.13,2013-03-17 15:35:00,
2013-03-17 09:40:00,32.7,29.8,29.72,SSE,160,7.0,7.0,89,0.00,,,0.00,Wunderground v.1.13,2013-03-17 15:40:00,
2013-03-17 09:45:00,32.7,29.8,29.72,South,186,7.0,14.0,89,0.00,,,0.00,Wunderground v.1.13,2013-03-17 15:45:00,
2013-03-17 09:50:00,32.9,29.7,29.72,South,184,6.0,6.0,88,0.00,,,0.00,Wunderground v.1.13,2013-03-17 15:50:00,
2013-03-17 09:55:00,32.9,29.7,29.72,SSE,153,7.0,14.0,88,0.00,,,0.00,Wunderground v.1.13,2013-03-17 15:55:00,
2013-03-17 10:00:00,33.1,29.7,29.72,SSE,155,8.0,8.0,87,0.00,,,0.00,Wunderground v.1.13,2013-03-17 16:00:00,
2013-03-17 10:05:00,33.2,29.8,29.71,SSE,161,8.0,8.0,87,0.00,,,0.00,Wunderground v.1.13,2013-03-17 16:05:00,
2013-03-17 10:10:00,33.5,29.8,29.71,SSE,160,6.0,6.0,86,0.00,,,0.00,Wunderground v.1.13,2013-03-17 16:10:00,
2013-03-17 10:15:00,33.5,29.8,29.71,South,173,6.0,6.0,86,0.00,,,0.00,Wunderground v.1.13,2013-03-17 16:15:00,
2013-03-17 10:20:00,33.8,30.1,29.71,SSE,155,6.0,14.0,86,0.00,,,0.00,Wunderground v.1.13,2013-03-17 16:20:00,
2013-03-17 10:25:00,34.0,30.0,29.71,SSE,160,5.0,14.0,85,0.00,,,0.00,Wunderground v.1.13,2013-03-17 16:25:00,
2013-03-17 10:30:00,34.0,29.7,29.71,South,171,6.0,6.0,84,0.00,,,0.00,Wunderground v.1.13,2013-03-17 16:30:00,
2013-03-17 10:35:00,34.4,29.8,29.69,SE,143,8.0,8.0,83,0.00,,,0.00,Wunderground v.1.13,2013-03-17 16:35:00,
2013-03-17 10:44:00,34.9,29.7,29.69,SSE,150,9.0,9.0,81,0.00,,,0.00,Wunderground v.1.13,2013-03-17 16:44:00,
2013-03-17 10:50:00,35.0,29.5,29.67,SSW,198,10.0,10.0,80,0.00,,,0.00,Wunderground v.1.13,2013-03-17 16:50:00,
2013-03-17 10:55:00,35.3,29.4,29.67,SSE,148,10.0,14.0,79,0.00,,,0.00,Wunderground v.1.13,2013-03-17 16:55:00,
2013-03-17 11:00:00,35.8,29.9,29.67,SE,142,8.0,8.0,79,0.00,,,0.00,Wunderground v.1.13,2013-03-17 17:00:00,
2013-03-17 11:05:00,35.9,29.7,29.67,SSE,157,8.0,14.0,78,0.00,,,0.00,Wunderground v.1.13,2013-03-17 17:05:00,
2013-03-17 11:10:00,35.8,29.6,29.67,SSE,163,8.0,8.0,78,0.00,,,0.00,Wunderground v.1.13,2013-03-17 17:10:00,
2013-03-17 11:15:00,35.9,29.7,29.67,SSE,157,8.0,8.0,78,0.00,,,0.00,Wunderground v.1.13,2013-03-17 17:15:00,
2013-03-17 11:20:00,36.5,30.3,29.67,SW,217,6.0,14.0,78,0.00,,,0.00,Wunderground v.1.13,2013-03-17 17:20:00,
2013-03-17 11:25:00,36.6,30.4,29.67,South,191,5.0,16.0,78,0.00,,,0.00,Wunderground v.1.13,2013-03-17 17:25:00,
2013-03-17 11:29:00,36.6,30.4,29.67,SW,217,7.0,7.0,78,0.00,,,0.00,Wunderground v.1.13,2013-03-17 17:29:00,
2013-03-17 11:35:00,37.2,30.3,29.66,SE,140,7.0,14.0,76,0.00,,,0.00,Wunderground v.1.13,2013-03-17 17:35:00,
2013-03-17 11:45:00,38.2,31.3,29.66,South,171,8.0,8.0,76,0.00,,,0.00,Wunderground v.1.13,2013-03-17 17:45:00,
2013-03-17 11:55:00,38.8,30.9,29.64,South,186,8.0,20.0,73,0.00,,,0.00,Wunderground v.1.13,2013-03-17 17:55:00,
2013-03-17 12:00:00,38.8,31.2,29.64,SE,146,8.0,14.0,74,0.00,,,0.00,Wunderground v.1.13,2013-03-17 18:00:00,
2013-03-17 12:10:00,38.9,31.3,29.62,SSE,149,8.0,8.0,74,0.00,,,0.00,Wunderground v.1.13,2013-03-17 18:10:00,
2013-03-17 12:15:00,39.3,32.0,29.62,SSE,155,7.0,7.0,75,0.00,,,0.00,Wunderground v.1.13,2013-03-17 18:15:00,
2013-03-17 12:20:00,40.3,32.3,29.61,SSE,159,6.0,14.0,73,0.00,,,0.00,Wunderground v.1.13,2013-03-17 18:20:00,
2013-03-17 12:25:00,40.8,33.2,29.61,SSE,157,6.0,14.0,74,0.00,,,0.00,Wunderground v.1.13,2013-03-17 18:25:00,
2013-03-17 12:30:00,40.6,32.6,29.61,SSE,161,8.0,14.0,73,0.00,,,0.00,Wunderground v.1.13,2013-03-17 18:30:00,
2013-03-17 12:35:00,41.8,33.4,29.59,SSE,150,9.0,9.0,72,0.00,,,0.00,Wunderground v.1.13,2013-03-17 18:35:00,
2013-03-17 12:45:00,42.2,33.5,29.59,ESE,120,7.0,7.0,71,0.00,,,0.00,Wunderground v.1.13,2013-03-17 18:45:00,
2013-03-17 12:50:00,42.3,33.2,29.60,South,175,5.0,14.0,70,0.00,,,0.00,Wunderground v.1.13,2013-03-17 18:50:00,
2013-03-17 12:55:00,42.8,33.7,29.60,South,182,6.0,14.0,70,0.00,,,0.00,Wunderground v.1.13,2013-03-17 18:55:00,
2013-03-17 13:00:00,44.1,34.2,29.60,South,175,5.0,5.0,68,0.00,,,0.00,Wunderground v.1.13,2013-03-17 19:00:00,
2013-03-17 13:05:00,43.6,33.7,29.58,South,173,5.0,5.0,68,0.00,,,0.00,Wunderground v.1.13,2013-03-17 19:05:00,
2013-03-17 13:10:00,43.9,34.0,29.58,SE,139,5.0,14.0,68,0.00,,,0.00,Wunderground v.1.13,2013-03-17 19:10:00,
2013-03-17 13:15:00,44.9,33.5,29.58,South,169,3.0,14.0,64,0.00,,,0.00,Wunderground v.1.13,2013-03-17 19:15:00,
2013-03-17 13:20:00,45.4,33.9,29.57,South,188,2.0,2.0,64,0.00,,,0.00,Wunderground v.1.13,2013-03-17 19:20:00,
2013-03-17 13:25:00,46.0,33.3,29.57,SE,144,1.0,14.0,61,0.00,,,0.00,Wunderground v.1.13,2013-03-17 19:25:00,
2013-03-17 13:30:00,46.2,33.9,29.57,SSE,153,1.0,1.0,62,0.00,,,0.00,Wunderground v.1.13,2013-03-17 19:30:00,
2013-03-17 13:35:00,46.1,33.4,29.57,SSE,157,2.0,14.0,61,0.00,,,0.00,Wunderground v.1.13,2013-03-17 19:35:00,
2013-03-17 13:40:00,46.7,32.3,29.57,South,180,2.0,14.0,57,0.00,,,0.00,Wunderground v.1.13,2013-03-17 19:40:00,
2013-03-17 13:45:00,48.3,27.9,29.57,SE,134,6.0,14.0,45,0.00,,,0.00,Wunderground v.1.13,2013-03-17 19:45:00,
2013-03-17 13:50:00,48.9,26.8,29.56,South,186,9.0,9.0,42,0.00,,,0.00,Wunderground v.1.13,2013-03-17 19:50:00,
2013-03-17 13:55:00,48.9,26.8,29.56,SW,214,8.0,14.0,42,0.00,,,0.00,Wunderground v.1.13,2013-03-17 19:55:00,
2013-03-17 14:05:00,49.1,27.0,29.55,SSE,161,7.0,7.0,42,0.00,,,0.00,Wunderground v.1.13,2013-03-17 20:05:00,
2013-03-17 14:09:00,49.4,26.7,29.55,SSW,192,6.0,14.0,41,0.00,,,0.00,Wunderground v.1.13,2013-03-17 20:09:00,
2013-03-17 14:15:00,49.8,26.4,29.55,SSE,158,6.0,6.0,40,0.00,,,0.00,Wunderground v.1.13,2013-03-17 20:15:00,
2013-03-17 14:20:00,49.6,26.2,29.53,SSE,161,6.0,14.0,40,0.00,,,0.00,Wunderground v.1.13,2013-03-17 20:20:00,
2013-03-17 14:25:00,49.9,26.5,29.53,SSE,165,7.0,7.0,40,0.00,,,0.00,Wunderground v.1.13,2013-03-17 20:25:00,
2013-03-17 14:30:00,50.2,26.8,29.53,SE,126,6.0,6.0,40,0.00,,,0.00,Wunderground v.1.13,2013-03-17 20:30:00,
2013-03-17 14:40:00,50.7,26.6,29.52,South,191,4.0,4.0,39,0.00,,,0.00,Wunderground v.1.13,2013-03-17 20:40:00,
2013-03-17 14:45:00,51.3,27.2,29.52,South,184,5.0,14.0,39,0.00,,,0.00,Wunderground v.1.13,2013-03-17 20:45:00,
2013-03-17 14:55:00,52.2,26.7,29.52,SSE,159,5.0,14.0,37,0.00,,,0.00,Wunderground v.1.13,2013-03-17 20:55:00,
2013-03-17 15:00:00,52.2,26.7,29.52,SE,139,6.0,6.0,37,0.00,,,0.00,Wunderground v.1.13,2013-03-17 21:00:00,
2013-03-17 15:05:00,52.3,26.8,29.49,SE,138,8.0,14.0,37,0.00,,,0.00,Wunderground v.1.13,2013-03-17 21:05:00,
2013-03-17 15:10:00,52.3,26.8,29.49,SSE,164,7.0,7.0,37,0.00,,,0.00,Wunderground v.1.13,2013-03-17 21:10:00,
2013-03-17 15:15:00,52.0,26.5,29.49,SSE,157,7.0,14.0,37,0.00,,,0.00,Wunderground v.1.13,2013-03-17 21:15:00,
2013-03-17 15:25:00,51.9,27.1,29.48,SSE,165,7.0,7.0,38,0.00,,,0.00,Wunderground v.1.13,2013-03-17 21:25:00,
2013-03-17 15:30:00,51.9,27.1,29.48,SSW,202,4.0,4.0,38,0.00,,,0.00,Wunderground v.1.13,2013-03-17 21:30:00,
2013-03-17 15:35:00,52.0,27.8,29.49,SSW,202,2.0,2.0,39,0.00,,,0.00,Wunderground v.1.13,2013-03-17 21:35:00,
2013-03-17 15:40:00,52.2,28.0,29.49,SSW,202,2.0,2.0,39,0.00,,,0.00,Wunderground v.1.13,2013-03-17 21:40:00,
2013-03-17 15:45:00,52.0,27.8,29.49,SSE,168,4.0,4.0,39,0.00,,,0.00,Wunderground v.1.13,2013-03-17 21:45:00,
2013-03-17 15:50:00,52.0,27.8,29.48,SSE,153,5.0,14.0,39,0.00,,,0.00,Wunderground v.1.13,2013-03-17 21:50:00,
2013-03-17 15:55:00,51.9,27.7,29.48,SSE,165,5.0,5.0,39,0.00,,,0.00,Wunderground v.1.13,2013-03-17 21:55:00,
2013-03-17 16:00:00,51.9,28.3,29.48,South,183,4.0,14.0,40,0.00,,,0.00,Wunderground v.1.13,2013-03-17 22:00:00,
2013-03-17 16:10:00,51.9,28.3,29.48,SSE,147,5.0,14.0,40,0.00,,,0.00,Wunderground v.1.13,2013-03-17 22:10:00,
2013-03-17 16:15:00,51.9,28.9,29.48,SSE,150,5.0,5.0,41,0.00,,,0.00,Wunderground v.1.13,2013-03-17 22:15:00,
2013-03-17 16:20:00,52.0,28.4,29.48,South,171,4.0,14.0,40,0.00,,,0.00,Wunderground v.1.13,2013-03-17 22:20:00,
2013-03-17 16:25:00,52.0,29.0,29.48,SSE,163,5.0,5.0,41,0.00,,,0.00,Wunderground v.1.13,2013-03-17 22:25:00,
2013-03-17 16:30:00,52.2,29.2,29.48,SSE,165,4.0,4.0,41,0.00,,,0.00,Wunderground v.1.13,2013-03-17 22:30:00,
2013-03-17 16:35:00,52.2,29.2,29.48,South,171,2.0,14.0,41,0.00,,,0.00,Wunderground v.1.13,2013-03-17 22:35:00,
2013-03-17 16:40:00,52.2,30.9,29.48,SW,230,5.0,14.0,44,0.00,,,0.00,Wunderground v.1.13,2013-03-17 22:40:00,
2013-03-17 16:45:00,49.5,37.4,29.48,WNW,288,10.0,10.0,63,0.00,,,0.01,Wunderground v.1.13,2013-03-17 22:45:00,
2013-03-17 16:50:00,47.7,36.9,29.50,SW,221,7.0,7.0,66,0.16,,,0.02,Wunderground v.1.13,2013-03-17 22:50:00,
2013-03-17 16:55:00,47.1,36.7,29.50,SSW,194,1.0,1.0,67,0.07,,,0.02,Wunderground v.1.13,2013-03-17 22:55:00,
2013-03-17 17:04:00,47.7,36.5,29.48,South,181,2.0,16.0,65,0.00,,,0.02,Wunderground v.1.13,2013-03-17 23:04:00,
2013-03-17 17:10:00,47.9,36.3,29.48,SSW,207,2.0,2.0,64,0.00,,,0.02,Wunderground v.1.13,2013-03-17 23:10:00,
2013-03-17 17:15:00,48.0,36.4,29.48,SSW,203,3.0,17.0,64,0.00,,,0.02,Wunderground v.1.13,2013-03-17 23:15:00,
2013-03-17 17:20:00,48.0,36.4,29.48,SSE,165,6.0,14.0,64,0.00,,,0.02,Wunderground v.1.13,2013-03-17 23:20:00,
2013-03-17 17:30:00,48.0,36.0,29.48,SSW,196,7.0,7.0,63,0.00,,,0.02,Wunderground v.1.13,2013-03-17 23:30:00,
2013-03-17 17:35:00,47.0,36.6,29.48,South,188,9.0,14.0,67,0.00,,,0.02,Wunderground v.1.13,2013-03-17 23:35:00,
2013-03-17 17:39:00,46.2,36.6,29.48,South,181,9.0,9.0,69,0.00,,,0.02,Wunderground v.1.13,2013-03-17 23:39:00,
2013-03-17 17:45:00,46.0,36.8,29.48,South,170,7.0,7.0,70,0.00,,,0.02,Wunderground v.1.13,2013-03-17 23:45:00,
2013-03-17 17:50:00,46.0,36.8,29.49,SE,146,4.0,4.0,70,0.00,,,0.02,Wunderground v.1.13,2013-03-17 23:50:00,
2013-03-17 18:00:00,46.0,37.1,29.49,NE,49,0.0,14.0,71,0.00,,,0.02,Wunderground v.1.13,2013-03-18 00:00:00,
2013-03-17 18:05:00,46.1,36.9,29.53,WNW,296,0.0,14.0,70,0.00,,,0.02,Wunderground v.1.13,2013-03-18 00:05:00,
2013-03-17 18:10:00,46.2,37.3,29.53,WNW,289,0.0,14.0,71,0.00,,,0.02,Wunderground v.1.13,2013-03-18 00:10:00,
2013-03-17 18:15:00,46.4,36.8,29.53,WNW,289,0.0,14.0,69,0.00,,,0.02,Wunderground v.1.13,2013-03-18 00:15:00,
2013-03-17 18:20:00,47.0,36.6,29.53,West,267,0.0,14.0,67,0.00,,,0.02,Wunderground v.1.13,2013-03-18 00:20:00,
2013-03-17 18:25:00,47.1,36.7,29.53,NNW,329,0.0,14.0,67,0.00,,,0.02,Wunderground v.1.13,2013-03-18 00:25:00,
2013-03-17 18:30:00,47.4,35.8,29.53,NNW,328,0.0,14.0,64,0.00,,,0.02,Wunderground v.1.13,2013-03-18 00:30:00,
2013-03-17 18:35:00,47.7,36.1,29.54,NW,321,0.0,14.0,64,0.00,,,0.02,Wunderground v.1.13,2013-03-18 00:35:00,
2013-03-17 18:40:00,47.6,36.0,29.54,SE,138,0.0,14.0,64,0.00,,,0.02,Wunderground v.1.13,2013-03-18 00:40:00,
2013-03-17 18:50:00,47.0,36.2,29.52,South,173,0.0,14.0,66,0.00,,,0.02,Wunderground v.1.13,2013-03-18 00:50:00,
2013-03-17 18:54:00,46.2,36.6,29.52,SE,142,1.0,1.0,69,0.00,,,0.02,Wunderground v.1.13,2013-03-18 00:54:00,
2013-03-17 19:00:00,45.5,36.6,29.52,SSE,157,2.0,14.0,71,0.00,,,0.02,Wunderground v.1.13,2013-03-18 01:00:00,
2013-03-17 19:05:00,44.9,36.4,29.53,SE,146,2.0,14.0,72,0.00,,,0.02,Wunderground v.1.13,2013-03-18 01:05:00,
2013-03-17 19:10:00,44.6,36.5,29.53,South,180,2.0,2.0,73,0.00,,,0.02,Wunderground v.1.13,2013-03-18 01:10:00,
2013-03-17 19:14:00,44.2,36.4,29.53,SSE,147,1.0,1.0,74,0.00,,,0.02,Wunderground v.1.13,2013-03-18 01:14:00,
2013-03-17 19:20:00,43.8,36.4,29.54,WSW,238,0.0,14.0,75,0.00,,,0.02,Wunderground v.1.13,2013-03-18 01:20:00,
2013-03-17 19:25:00,43.5,36.4,29.54,West,259,0.0,14.0,76,0.00,,,0.02,Wunderground v.1.13,2013-03-18 01:25:00,
2013-03-17 19:30:00,43.8,36.0,29.54,SSW,199,2.0,2.0,74,0.00,,,0.02,Wunderground v.1.13,2013-03-18 01:30:00,
2013-03-17 19:35:00,43.9,35.8,29.56,SSW,199,2.0,2.0,73,0.00,,,0.02,Wunderground v.1.13,2013-03-18 01:35:00,
2013-03-17 19:40:00,43.9,35.5,29.56,South,190,0.0,14.0,72,0.00,,,0.02,Wunderground v.1.13,2013-03-18 01:40:00,
2013-03-17 19:45:00,44.1,34.6,29.56,SW,216,0.0,14.0,69,0.00,,,0.02,Wunderground v.1.13,2013-03-18 01:45:00,
2013-03-17 19:50:00,44.6,34.7,29.56,SSW,210,0.0,14.0,68,0.00,,,0.02,Wunderground v.1.13,2013-03-18 01:50:00,
2013-03-17 19:59:00,44.3,34.8,29.56,SW,227,0.0,14.0,69,0.00,,,0.02,Wunderground v.1.13,2013-03-18 01:59:00,
2013-03-17 20:05:00,44.3,34.0,29.56,WNW,287,0.0,14.0,67,0.00,,,0.02,Wunderground v.1.13,2013-03-18 02:05:00,
2013-03-17 20:10:00,44.6,32.8,29.56,West,265,0.0,14.0,63,0.00,,,0.02,Wunderground v.1.13,2013-03-18 02:10:00,
2013-03-17 20:15:00,45.4,28.8,29.56,WNW,284,0.0,14.0,52,0.00,,,0.02,Wunderground v.1.13,2013-03-18 02:15:00,
2013-03-17 20:20:00,46.1,25.4,29.56,WNW,290,2.0,2.0,44,0.00,,,0.02,Wunderground v.1.13,2013-03-18 02:20:00,
2013-03-17 20:30:00,47.1,20.1,29.56,NNW,344,5.0,24.0,34,0.00,,,0.02,Wunderground v.1.13,2013-03-18 02:30:00,
2013-03-17 20:35:00,45.4,28.3,29.57,NNW,346,10.0,15.0,51,0.00,,,0.02,Wunderground v.1.13,2013-03-18 02:35:00,
2013-03-17 20:40:00,43.8,29.5,29.57,NNW,344,10.0,14.0,57,0.00,,,0.02,Wunderground v.1.13,2013-03-18 02:40:00,
2013-03-17 20:44:00,42.8,29.5,29.57,North,360,9.0,9.0,59,0.00,,,0.02,Wunderground v.1.13,2013-03-18 02:44:00,
2013-03-17 20:50:00,42.3,29.4,29.58,NW,311,10.0,14.0,60,0.00,,,0.02,Wunderground v.1.13,2013-03-18 02:50:00,
2013-03-17 20:55:00,41.9,29.0,29.58,NW,314,9.0,14.0,60,0.00,,,0.02,Wunderground v.1.13,2013-03-18 02:55:00,
2013-03-17 21:00:00,41.5,28.6,29.58,NNW,329,9.0,9.0,60,0.00,,,0.02,Wunderground v.1.13,2013-03-18 03:00:00,
2013-03-17 21:05:00,41.3,28.0,29.61,NNW,343,11.0,11.0,59,0.00,,,0.02,Wunderground v.1.13,2013-03-18 03:05:00,
2013-03-17 21:10:00,40.8,27.6,29.61,NW,316,15.0,15.0,59,0.00,,,0.02,Wunderground v.1.13,2013-03-18 03:10:00,
2013-03-17 21:15:00,40.2,27.8,29.61,NNW,341,14.0,15.0,61,0.00,,,0.02,Wunderground v.1.13,2013-03-18 03:15:00,
2013-03-17 21:19:00,39.5,27.9,29.63,NW,322,12.0,12.0,63,0.00,,,0.02,Wunderground v.1.13,2013-03-18 03:19:00,
2013-03-17 21:25:00,38.9,27.4,29.63,NW,311,13.0,17.0,63,0.00,,,0.02,Wunderground v.1.13,2013-03-18 03:25:00,
2013-03-17 21:35:00,38.2,27.1,29.65,North,351,17.0,17.0,64,0.00,,,0.02,Wunderground v.1.13,2013-03-18 03:35:00,
2013-03-17 21:40:00,37.9,27.2,29.65,NW,317,17.0,17.0,65,0.00,,,0.02,Wunderground v.1.13,2013-03-18 03:40:00,
2013-03-17 21:45:00,37.6,26.5,29.65,NNW,342,18.0,20.0,64,0.00,,,0.02,Wunderground v.1.13,2013-03-18 03:45:00,
2013-03-17 21:55:00,36.9,25.9,29.66,NW,324,17.0,17.0,64,0.00,,,0.02,Wunderground v.1.13,2013-03-18 03:55:00,
2013-03-17 22:00:00,36.8,26.1,29.66,NNW,340,16.0,16.0,65,0.00,,,0.02,Wunderground v.1.13,2013-03-18 04:00:00,
2013-03-17 22:05:00,36.6,25.9,29.68,NNW,331,14.0,14.0,65,0.00,,,0.02,Wunderground v.1.13,2013-03-18 04:05:00,
2013-03-17 22:10:00,36.6,25.2,29.68,NW,316,15.0,15.0,63,0.00,,,0.02,Wunderground v.1.13,2013-03-18 04:10:00,
2013-03-17 22:20:00,36.3,24.1,29.69,NW,306,15.0,15.0,61,0.00,,,0.02,Wunderground v.1.13,2013-03-18 04:20:00,
2013-03-17 22:24:00,36.2,24.8,29.69,NNW,340,14.0,14.0,63,0.00,,,0.02,Wunderground v.1.13,2013-03-18 04:24:00,
2013-03-17 22:30:00,35.9,24.9,29.69,NNW,330,11.0,18.0,64,0.00,,,0.02,Wunderground v.1.13,2013-03-18 04:30:00,
2013-03-17 22:40:00,35.5,24.1,29.70,NNW,342,14.0,15.0,63,0.00,,,0.02,Wunderground v.1.13,2013-03-18 04:40:00,
2013-03-17 22:45:00,35.3,23.6,29.70,North,360,13.0,19.0,62,0.00,,,0.02,Wunderground v.1.13,2013-03-18 04:45:00,
2013-03-17 22:50:00,35.3,23.6,29.70,NNW,331,14.0,15.0,62,0.00,,,0.03,Wunderground v.1.13,2013-03-18 04:50:00,
2013-03-17 22:54:00,35.2,23.5,29.70,NNW,345,14.0,16.0,62,0.00,,,0.03,Wunderground v.1.13,2013-03-18 04:54:00,
2013-03-17 22:59:00,34.9,23.6,29.70,NNW,341,12.0,12.0,63,0.00,,,0.03,Wunderground v.1.13,2013-03-18 04:59:00,
2013-03-17 23:05:00,34.7,23.4,29.71,NNW,338,11.0,16.0,63,0.00,,,0.03,Wunderground v.1.13,2013-03-18 05:05:00,
2013-03-17 23:10:00,34.7,23.4,29.71,NNW,340,11.0,11.0,63,0.00,,,0.03,Wunderground v.1.13,2013-03-18 05:10:00,
2013-03-17 23:15:00,34.7,23.0,29.71,NNW,331,11.0,11.0,62,0.00,,,0.03,Wunderground v.1.13,2013-03-18 05:15:00,
2013-03-17 23:20:00,34.7,23.0,29.73,NNW,342,11.0,11.0,62,0.00,,,0.03,Wunderground v.1.13,2013-03-18 05:20:00,
2013-03-17 23:30:00,34.1,23.2,29.73,NNW,328,6.0,6.0,64,0.00,,,0.03,Wunderground v.1.13,2013-03-18 05:30:00,
2013-03-17 23:35:00,33.8,23.3,29.75,NW,325,7.0,7.0,65,0.00,,,0.03,Wunderground v.1.13,2013-03-18 05:35:00,
2013-03-17 23:45:00,33.5,23.4,29.75,NNW,336,3.0,14.0,66,0.00,,,0.03,Wunderground v.1.13,2013-03-18 05:45:00,
2013-03-17 23:50:00,33.4,23.3,29.75,NW,309,3.0,14.0,66,0.00,,,0.03,Wunderground v.1.13,2013-03-18 05:50:00,